Regional Weather Roundup
Issued by NWS

Home | Current Version | Previous Version | Graphics & Text | Print | Product List | Glossary Off
Versions: 1 2 3 4 5 6 7 8 9 10 11 12 13 14 15 16 17 18 19 20 21 22 23 24 25 26 27 28 29 30 31 32 33 34 35 36 37 38 39 40 41 42 43 44 45 46 47 48 49 50

000
ASUS43 KFSD 221010
RWRSD

WEATHER ROUNDUP FOR SOUTH DAKOTA
NATIONAL WEATHER SERVICE SIOUX FALLS SD
500 AM CDT TUE APR 22 2014

NOTE: "FAIR" INDICATES FEW OR NO CLOUDS BELOW 12,000 FEET WITH NO
SIGNIFICANT WEATHER AND/OR OBSTRUCTIONS TO VISIBILITY.


SDZ001>005-009-010-012>017-221100-
NORTHWEST AND NORTH CENTRAL SOUTH DAKOTA

CITY           SKY/WX    TMP DP  RH WIND       PRES   REMARKS
BUFFALO          N/A     44  29  55 SE14      29.90F
FAITH            N/A     43  30  60 SE16      30.01F
MOBRIDGE       MOCLDY    36  28  73 SE8       30.07S
$$

SDZ012>016-024>037-041>051-057-063-072>074-221100-
SOUTHWEST AND SOUTH CENTRAL SOUTH DAKOTA

CITY           SKY/WX    TMP DP  RH WIND       PRES   REMARKS
RAPID CTY ARPT PTCLDY    38  28  67 SE5       29.98F
PIERRE         CLEAR     38  30  73 E5        30.08F
CUSTER         PTCLDY    33  24  69 CALM      30.02F
ELLSWORTH AFB  CLEAR     44  28  52 S13       29.98F
PHILIP         PTCLDY    44  29  55 E7        30.04F
PINE RIDGE     CLEAR     52  25  35 S24G39    29.98F
SPEARFISH      FAIR      52  28  40 NW5       29.94S
WINNER         FAIR      43  30  60 S9        30.10F
$$

SDZ004>011-016>023-039-040-221100-
NORTHEAST SOUTH DAKOTA

CITY           SKY/WX    TMP DP  RH WIND       PRES   REMARKS
ABERDEEN       CLEAR     27  23  85 CALM      30.13F
WATERTOWN      CLEAR     32  28  85 CALM      30.13F
SISSETON         N/A     31  29  92 W5        30.13S WCI  26
$$

SDZ017-020-022-023-036>040-048>070-221100-
SOUTHEAST SOUTH DAKOTA

CITY           SKY/WX    TMP DP  RH WIND       PRES   REMARKS
SIOUX FALLS    CLEAR     30  26  85 CALM      30.15R
HURON          CLEAR     39  30  70 S5        30.14S
CHAMBERLAIN      N/A     39  31  72 S8        30.11F
MITCHELL       CLEAR     35  30  82 SE5       30.15S
YANKTON        CLEAR     37  30  75 CALM      30.16S
$$

ABBREVIATIONS USED IN REMARKS
   TC - TEMPERATURE IN CELSIUS
  WCI - WIND CHILL INDEX
   HX - HEAT INDEX
  VSB - VISIBILITY




USA.gov is the U.S. government's official web portal to all federal, state and local government web resources and services.